Reno - Stead, NV

9:33 PM PDT on July 25, 2017 (GMT -0700)
Reno - Stead

Weather History for KRTS - March, 2014

Change the Weather History Date:

Wednesday, March 26, 2014

  Actual Average (KRNO) Record (KRNO)
Temperature  
Mean Temperature 41 °F -  
Max Temperature 50 °F 58 °F 77 °F (1988)
Min Temperature 32 °F 28 °F 11 °F (1902)
Degree Days  
Heating Degree Days 24    
Moisture  
Dew Point 24 °F    
Average Humidity 56    
Maximum Humidity 81    
Minimum Humidity 35    
Precipitation  
Precipitation 0.00 in - - ()
Sea Level Pressure  
Sea Level Pressure 29.72 in    
Wind  
Wind Speed 12 mph (WSW)    
Max Wind Speed 26 mph    
Max Gust Speed 38 mph    
Visibility 10 miles    
Events      
Averages and records for this station are not official NWS values.
T = Trace of Precipitation, MM = Missing Value Source: NWS Daily Summary

Daily Weather History Graph

Daily Weather History Graph

Search for Another Location

Airport or City:

Trip Planner

Search our weather history database for the weather conditions in past years. The results will help you decide how hot, cold, wet, or windy it might be!

Date:

Astronomy

Mar. 26, 2014 Rise Set
Actual Time 6:53 AM PDT 7:17 PM PDT
Civil Twilight 6:26 AM PDT 7:44 PM PDT
Nautical Twilight 5:54 AM PDT 8:16 PM PDT
Astronomical Twilight 5:22 AM PDT 8:49 PM PDT
Moon 4:04 AM PDT 3:02 PM PDT
Length of Visible Light 13h 18m
Length of Day
12h 24m
Waning Crescent, 21% of the Moon is Illuminated
Mar 26
Waning Crescent
Mar 30
New
Apr 7
First Quarter
Apr 15
Full
Apr 22
Last Quarter

Hourly Weather History & Observations

Time (PDT) Temp. Windchill Dew Point Humidity Pressure Visibility Wind Dir Wind Speed Gust Speed Precip Events Conditions
12:15 AM 37.4 °F 32.8 °F 32.0 °F 81% 29.73 in 10.0 mi West 5.8 mph - N/A   Scattered Clouds
12:35 AM 37.4 °F 32.8 °F 28.4 °F 70% 29.73 in 10.0 mi West 5.8 mph 17.3 mph N/A   Partly Cloudy
12:55 AM 37.4 °F - 28.4 °F 70% 29.73 in 10.0 mi Calm Calm - N/A   Partly Cloudy
1:15 AM 37.4 °F 32.1 °F 26.6 °F 65% 29.72 in 10.0 mi West 6.9 mph - N/A   Mostly Cloudy
1:35 AM 37.4 °F 30.3 °F 26.6 °F 65% 29.72 in 10.0 mi WSW 10.4 mph - N/A   Partly Cloudy
1:55 AM 37.4 °F 30.3 °F 26.6 °F 65% 29.72 in 10.0 mi WSW 10.4 mph - N/A   Clear
2:15 AM 35.6 °F 28.6 °F 26.6 °F 70% 29.71 in 10.0 mi WSW 9.2 mph - N/A   Clear
2:35 AM 37.4 °F 28.9 °F 26.6 °F 65% 29.71 in 10.0 mi WSW 13.8 mph 20.7 mph N/A   Clear
2:55 AM 37.4 °F 28.9 °F 28.4 °F 70% 29.70 in 10.0 mi WSW 13.8 mph - N/A   Clear
3:15 AM 35.6 °F - 26.6 °F 70% 29.71 in 10.0 mi Calm Calm - N/A   Scattered Clouds
3:35 AM 35.6 °F 29.9 °F 26.6 °F 70% 29.70 in 10.0 mi West 6.9 mph - N/A   Mostly Cloudy
3:55 AM 35.6 °F 29.9 °F 26.6 °F 70% 29.70 in 10.0 mi North 6.9 mph - N/A   Overcast
4:10 AM 37.4 °F 32.1 °F 28.4 °F 70% 29.70 in 10.0 mi NNE 6.9 mph - N/A   Overcast
4:30 AM 35.6 °F 30.7 °F 28.4 °F 75% 29.71 in 10.0 mi North 5.8 mph - N/A   Overcast
4:50 AM 35.6 °F 30.7 °F 26.6 °F 70% 29.70 in 10.0 mi NW 5.8 mph - N/A   Overcast
5:10 AM 35.6 °F 26.2 °F 21.2 °F 56% 29.71 in 10.0 mi West 15.0 mph 24.2 mph N/A   Mostly Cloudy
5:30 AM 35.6 °F 26.6 °F 23.0 °F 60% 29.70 in 10.0 mi SSW 13.8 mph 18.4 mph N/A   Overcast
5:55 AM 35.6 °F 29.2 °F 23.0 °F 60% 29.71 in 10.0 mi SW 8.1 mph - N/A   Scattered Clouds
6:15 AM 33.8 °F 27.0 °F 23.0 °F 65% 29.71 in 10.0 mi SW 8.1 mph - N/A   Scattered Clouds
6:35 AM 33.8 °F 24.8 °F 19.4 °F 56% 29.71 in 10.0 mi WSW 12.7 mph 17.3 mph N/A   Partly Cloudy
6:55 AM 33.8 °F 26.4 °F 19.4 °F 56% 29.71 in 10.0 mi West 9.2 mph 20.7 mph N/A   Partly Cloudy
7:10 AM 32.0 °F 26.4 °F 19.4 °F 60% 29.72 in 10.0 mi WNW 5.8 mph - N/A   Clear
7:35 AM 32.0 °F 22.1 °F 15.8 °F 51% 29.73 in 10.0 mi West 13.8 mph - N/A   Clear
7:55 AM 33.8 °F 24.3 °F 17.6 °F 52% 29.73 in 10.0 mi WSW 13.8 mph - N/A   Partly Cloudy
8:15 AM 35.6 °F 26.6 °F 17.6 °F 48% 29.73 in 10.0 mi West 13.8 mph 28.8 mph N/A   Partly Cloudy
8:35 AM 35.6 °F 24.5 °F 19.4 °F 52% 29.73 in 10.0 mi West 20.7 mph 25.3 mph N/A   Clear
8:55 AM 35.6 °F 25.2 °F 19.4 °F 52% 29.73 in 10.0 mi West 18.4 mph 24.2 mph N/A   Clear
9:15 AM 37.4 °F 26.4 °F 19.4 °F 48% 29.72 in 10.0 mi West 23.0 mph 28.8 mph N/A   Clear
9:35 AM 37.4 °F 27.5 °F 21.2 °F 52% 29.73 in 10.0 mi West 18.4 mph 28.8 mph N/A   Partly Cloudy
9:55 AM 39.2 °F 29.0 °F 23.0 °F 52% 29.72 in 10.0 mi West 21.9 mph 27.6 mph N/A   Partly Cloudy
10:15 AM 39.2 °F 30.2 °F 19.4 °F 45% 29.72 in 10.0 mi West 17.3 mph 25.3 mph N/A   Clear
10:35 AM 41.0 °F 33.9 °F 21.2 °F 45% 29.73 in 10.0 mi West 12.7 mph 21.9 mph N/A   Clear
10:55 AM 42.8 °F 37.5 °F 19.4 °F 39% 29.73 in 10.0 mi WSW 9.2 mph 17.3 mph N/A   Clear
11:15 AM 44.6 °F 37.4 °F 21.2 °F 39% 29.72 in 10.0 mi SSW 16.1 mph 21.9 mph N/A   Clear
11:35 AM 44.6 °F 38.8 °F 19.4 °F 37% 29.73 in 10.0 mi West 11.5 mph 19.6 mph N/A   Scattered Clouds
11:55 AM 42.8 °F 36.6 °F 21.2 °F 42% 29.73 in 10.0 mi West 11.5 mph 23.0 mph N/A   Mostly Cloudy
12:15 PM 42.8 °F 37.0 °F 23.0 °F 46% 29.73 in 10.0 mi South 10.4 mph 20.7 mph N/A   Overcast
12:35 PM 42.8 °F 37.5 °F 23.0 °F 46% 29.73 in 10.0 mi West 9.2 mph 18.4 mph N/A   Overcast
12:55 PM 42.8 °F 35.1 °F 23.0 °F 46% 29.72 in 10.0 mi SW 16.1 mph 25.3 mph N/A   Overcast
1:15 PM 44.6 °F 37.2 °F 24.8 °F 46% 29.72 in 10.0 mi WSW 17.3 mph 25.3 mph N/A   Overcast
1:35 PM 46.4 °F 39.5 °F 24.8 °F 43% 29.71 in 10.0 mi WSW 17.3 mph 24.2 mph N/A   Overcast
1:55 PM 48.2 °F - 23.0 °F 37% 29.71 in 10.0 mi SW 21.9 mph 29.9 mph N/A   Overcast
2:15 PM 48.2 °F - 23.0 °F 37% 29.70 in 10.0 mi WSW 25.3 mph 32.2 mph N/A   Mostly Cloudy
2:35 PM 50.0 °F - 23.0 °F 35% 29.70 in 10.0 mi WSW 26.5 mph 36.8 mph N/A   Scattered Clouds
2:55 PM 48.2 °F - 23.0 °F 37% 29.70 in 10.0 mi WSW 24.2 mph 38.0 mph N/A   Partly Cloudy
3:15 PM 48.2 °F - 23.0 °F 37% 29.70 in 10.0 mi West 20.7 mph 32.2 mph N/A   Clear
3:35 PM 48.2 °F - 24.8 °F 40% 29.70 in 10.0 mi WSW 19.6 mph 27.6 mph N/A   Partly Cloudy
3:55 PM 48.2 °F - 23.0 °F 37% 29.69 in 10.0 mi WSW 24.2 mph 32.2 mph N/A   Partly Cloudy
4:15 PM 46.4 °F 39.0 °F 24.8 °F 43% 29.70 in 10.0 mi WSW 19.6 mph 23.0 mph N/A   Partly Cloudy
4:35 PM 46.4 °F 39.0 °F 24.8 °F 43% 29.70 in 10.0 mi WSW 19.6 mph 28.8 mph N/A   Scattered Clouds
4:50 PM 46.4 °F 38.5 °F 24.8 °F 43% 29.70 in 10.0 mi WSW 21.9 mph 28.8 mph N/A   Scattered Clouds
5:15 PM 44.6 °F 37.4 °F 26.6 °F 49% 29.70 in 10.0 mi WSW 16.1 mph 25.3 mph N/A   Scattered Clouds
5:35 PM 44.6 °F 36.1 °F 24.8 °F 46% 29.69 in 10.0 mi WSW 21.9 mph 32.2 mph N/A   Partly Cloudy
5:55 PM 42.8 °F 35.1 °F 24.8 °F 49% 29.70 in 10.0 mi WSW 16.1 mph 24.2 mph N/A   Clear
6:15 PM 41.0 °F 32.5 °F 26.6 °F 57% 29.70 in 10.0 mi WSW 17.3 mph 25.3 mph N/A   Clear
6:35 PM 41.0 °F 31.4 °F 24.8 °F 53% 29.70 in 10.0 mi WSW 21.9 mph 27.6 mph N/A   Partly Cloudy
6:55 PM 39.2 °F 30.5 °F 26.6 °F 61% 29.70 in 10.0 mi WSW 16.1 mph 21.9 mph N/A   Partly Cloudy
7:15 PM 39.2 °F 30.5 °F 26.6 °F 61% 29.71 in 10.0 mi WSW 16.1 mph 23.0 mph N/A   Partly Cloudy
7:35 PM 37.4 °F 26.6 °F 26.6 °F 65% 29.71 in 10.0 mi WSW 21.9 mph 32.2 mph N/A   Mostly Cloudy
7:55 PM 37.4 °F 26.9 °F 26.6 °F 65% 29.71 in 10.0 mi WSW 20.7 mph 28.8 mph N/A   Scattered Clouds
8:15 PM 37.4 °F 27.5 °F 26.6 °F 65% 29.72 in 10.0 mi WSW 18.4 mph 24.2 mph N/A   Partly Cloudy
8:30 PM 37.4 °F 26.4 °F 26.6 °F 65% 29.73 in 10.0 mi West 23.0 mph 26.5 mph N/A   Mostly Cloudy
8:55 PM 37.4 °F 26.4 °F 26.6 °F 65% 29.75 in 10.0 mi WSW 23.0 mph 29.9 mph N/A   Clear
9:15 PM 37.4 °F 27.5 °F 24.8 °F 60% 29.75 in 10.0 mi WSW 18.4 mph 27.6 mph N/A   Clear
9:35 PM 37.4 °F 28.2 °F 26.6 °F 65% 29.76 in 10.0 mi WSW 16.1 mph - N/A   Mostly Cloudy
9:50 PM 37.4 °F 27.8 °F 26.6 °F 65% 29.76 in 10.0 mi WSW 17.3 mph 23.0 mph N/A   Overcast
10:10 PM 37.4 °F 28.5 °F 26.6 °F 65% 29.76 in 10.0 mi WSW 15.0 mph 19.6 mph N/A   Overcast
10:30 PM 37.4 °F 27.5 °F 26.6 °F 65% 29.76 in 10.0 mi WSW 18.4 mph 23.0 mph N/A   Mostly Cloudy
10:50 PM 37.4 °F 26.6 °F 26.6 °F 65% 29.76 in 10.0 mi SW 21.9 mph 28.8 mph N/A   Mostly Cloudy
11:15 PM 37.4 °F 27.8 °F 26.6 °F 65% 29.77 in 10.0 mi WSW 17.3 mph 21.9 mph N/A   Overcast
11:30 PM 35.6 °F 25.9 °F 26.6 °F 70% 29.77 in 10.0 mi WSW 16.1 mph 23.0 mph N/A   Mostly Cloudy
11:55 PM 35.6 °F 24.2 °F 26.6 °F 70% 29.77 in 10.0 mi WSW 21.9 mph 27.6 mph N/A   Mostly Cloudy